x

Frying Pan Shoals, Nc Buoy (41013) Wave Buoy

8:50 - Thu 24th Apr 2014 All times are EDT. -4 hours from GMT.

  • Sig Wave height 3.9ft
  • Swell Direction
  • Peak Period 5s
  • Average Period 4s
  • Wind
    20mph, 22mph gusts
  • Sea Temp 68°f
  • Ar Temp 65°f
  • Sea Pressure 1017.8mb
  • Frying Pan Shoals, Nc Buoy
  • Frying Pan Shoals, Nc Buoy

More Historic Weather Station data

Upgrade to MSW Pro to gain access to the past 30 days of data for over 8000 Wavebouys and Weather Stations around the globe.

Join Pro

Comparision Forecast

View Surf forecast
   
Qui 04/24 8:50 4ft 5s 4s 20 22 mph 1017.8mb 68f 65f
7:50 3.5ft 8s 5s 18 20 mph 1017mb 68f 66f
6:50 3.5ft 9s 5s 16 18 mph 1016.2mb 68f 66f
5:50 2.5ft 9s 5s 16 20 mph 1014.9mb 68f 64f
4:50 2.5ft 8s 6s 9
mph
1014.4mb 68f 68f
3:50 2.5ft 8s 6s 9 11 mph 1014.2mb 68f 68f
2:50 2.5ft 9s 6s 9
mph
1014.1mb 68f 68f
1:50 2ft 8s 5s 9 11 mph 1014.2mb 68f 68f
12:50 2ft 8s 5s 7 9 mph 1014.3mb 68f 68f
Qua 04/23 11:50 2ft 9s 5s 7 9 mph 1013.9mb 68f 67f
10:50 2.5ft 8s 5s 9 11 mph 1013.2mb 68f 67f
9:50 2.5ft 8s 5s 11
mph
1012.6mb 68f 66f
8:50 2.5ft 8s 5s 11 13 mph 1011.3mb 68f 67f
7:50 2.5ft 8s 4s 13 16 mph 1010.1mb 68f 68f
6:50 2.5ft 9s 4s 13 16 mph 1009.3mb 69f 69f
5:50 2.5ft 9s 5s 13 16 mph 1008.7mb 69f 69f
4:50 2.5ft 8s 5s 16 18 mph 1008.4mb 69f 69f
3:50 2.5ft 8s 5s 11 13 mph 1008.6mb 69f 69f
2:50 2.5ft 9s 5s 13
mph
1009mb 69f 67f
1:50 2.5ft 5s 5s 11
mph
1009.3mb 68f 67f
12:50 2.5ft 9s 4s 11
mph
1009.8mb 68f 65f
11:50 3ft 8s 5s 13 16 mph 1010.3mb 68f 65f
10:50 3ft 8s 4s 13
mph
1009.8mb 67f 64f
9:50 3ft 6s 4s 16 18 mph 1009.2mb 67f 64f
8:50 3.5ft 8s 4s 18 20 mph 1008.5mb 67f 64f
7:50 3.5ft 6s 4s 18 20 mph 1007.9mb 67f 65f
6:50 3.5ft 5s 4s 18 22 mph 1007mb 67f 65f
5:50 3.5ft 6s 4s 18 22 mph 1006.3mb 67f 65f
4:50 4ft 9s 5s 20 22 mph 1005.8mb 67f 66f
3:50 4ft 6s 5s 18 22 mph 1006mb 67f 67f
2:50 4ft 6s 5s 16 18 mph 1006.1mb 67f 67f
1:50 4.5ft 6s 5s 9 11 mph 1006.4mb 67f 68f
12:50 5ft 6s 5s 18 22 mph 1007mb 67f 67f
Ter 04/22 11:50 5.5ft 5s 5s 22 27 mph 1006.7mb 67f 68f
10:50 4.5ft 6s 5s 25 29 mph 1006.6mb 67f 68f
9:50 4.5ft 5s 5s 20 25 mph 1006.7mb 67f 69f
8:50 4.5ft 5s 5s 20 25 mph 1006.3mb 67f 69f
7:50 4ft 5s 5s 18 22 mph 1006.3mb 67f 69f
6:50 3.5ft 8s 5s 20 22 mph 1006.4mb 68f 69f
5:50 3.5ft 9s 5s 18 22 mph 1006.5mb 68f 70f
4:50 4ft 9s 5s 18 20 mph 1006.8mb 68f 70f
3:50 4ft 10s 5s 18 22 mph 1007.2mb 68f 69f
2:50 3.5ft 10s 5s 18 20 mph 1008.4mb 67f 68f
1:50 3.5ft 4s 5s 18 20 mph 1009.2mb 67f 67f
12:50 3.5ft 4s 5s 18 20 mph 1009.7mb 67f 67f
11:50 4ft 9s 5s 18 22 mph 1010.5mb 67f 67f
10:50 3.5ft 10s 5s 18 20 mph 1010.9mb 67f 67f
9:50 3.5ft 8s 6s 16 18 mph 1011.2mb 67f 66f
8:50 4ft 9s 6s 13 16 mph 1011.6mb 67f 66f
7:50 4.5ft 9s 7s 9 11 mph 1011.8mb 67f 65f
6:50 4ft 8s 6s 9 11 mph 1011.8mb 66f 66f
5:50 4ft 10s 6s 9
mph
1011.4mb 66f 66f
4:50 3.5ft 10s 6s 7 9 mph 1011.5mb 66f 65f
3:50 4.5ft 9s 6s 11 13 mph 1011.8mb 66f 65f
2:50 4.5ft 10s 6s 7 9 mph 1011.7mb 66f 65f
1:50 4.5ft 9s 6s 7
mph
1012.6mb 67f 65f
12:50 4.5ft 10s 6s 4
mph
1013.1mb 67f 65f
Seg 04/21 11:50 5ft 11s 6s 4 7 mph 1013.9mb 67f 65f
10:50 5ft 10s 6s 2 4 mph 1014mb 67f 66f
9:50 5ft 11s 6s 4 7 mph 1014.2mb 67f 66f
8:50 5.5ft 7s 6s 9 11 mph 1013.9mb 66f 66f
7:50 5.5ft 8s 6s 11
mph
1013.5mb 66f 66f
6:50 5.5ft 7s 6s 11 13 mph 1013.5mb 66f 66f
5:50 6ft 7s 6s 11 13 mph 1013.8mb 66f 65f
4:50 6.5ft 11s 6s 16 18 mph 1014mb 67f 65f
3:50 7ft 11s 6s 18 22 mph 1014.3mb 68f 64f
2:50 7.5ft 7s 6s 20 25 mph 1014.9mb 68f 64f
1:50 7.5ft 11s 6s 22 27 mph 1014.9mb 68f 62f
12:50 8ft 7s 6s 22 27 mph 1015.6mb 68f 61f
11:50 8.5ft 6s 6s 25 29 mph 1015.8mb 68f 59f
10:50 8.5ft 8s 6s 27 31 mph 1015.5mb 68f 58f
9:50 8ft 8s 6s 29 34 mph 1015.3mb 67f 58f
8:50 8ft 6s 6s 27 34 mph 1015.3mb 67f 57f
7:50 9ft 8s 6s 29 36 mph 1015mb 67f 57f
6:50 8.5ft 6s 6s 29 34 mph 1015.1mb 67f 57f
5:50 9ft 7s 6s 31 36 mph 1014.7mb 67f 57f
4:50 9ft 8s 6s 31 36 mph 1014.4mb 67f 57f
3:50 10ft 8s 6s 31 36 mph 1014.4mb 67f 58f
2:50 10.5ft 8s 6s 31 38 mph 1014.3mb 68f 59f
1:50 11ft 7s 6s 34 40 mph 1015.2mb 69f 58f
12:50 11ft 8s 6s 34 40 mph 1015.8mb 69f 58f
Dom 04/20 11:50  -   -   -  38 45 mph 1015.6mb 69f 58f
10:50 12.5ft 8s 7s 36 45 mph 1015.8mb 69f 58f
9:50 11.5ft 8s 6s 38 47 mph 1015.3mb 68f 59f
8:50 13ft 8s 6s 38 49 mph 1015mb 68f 59f
7:50 12ft 8s 6s 38 45 mph 1014.5mb 68f 60f
6:50 12ft 7s 6s 40 49 mph 1013.6mb 68f 60f
5:50 12ft 8s 6s 40 51 mph 1013.6mb 68f 60f
4:50 11ft 7s 6s 40 49 mph 1013mb 68f 61f
3:50 10ft 8s 6s 40 49 mph 1012.9mb 68f 60f
2:50 11ft 8s 6s 40 47 mph 1013.7mb 68f 61f